| time (UTC) | temp F | wind direction | speed knots | gust knots | rain 1hr in | rain 24hr in | rain mn in | humidity % | barometer mb |
| 20260503200006 | 72 | 217 | 1.7 | 5.2 | 0.00 | 0.00 | 0.00 | 40 | 1019.1 |
| 20260503194506 | 72 | 187 | 1.7 | 7.0 | 0.00 | 0.00 | 0.00 | 40 | 1019.3 |
| 20260503193059 | 71 | 208 | 1.7 | 6.1 | 0.00 | 0.00 | 0.00 | 38 | 1019.7 |
| 20260503191605 | 71 | 238 | 2.6 | 6.1 | 0.00 | 0.00 | 0.00 | 42 | 1020.0 |
| 20260503190058 | 70 | 209 | 3.5 | 11.3 | 0.00 | 0.00 | 0.00 | 40 | 1020.4 |
| 20260503184614 | 70 | 176 | 3.5 | 8.7 | 0.00 | 0.00 | 0.00 | 40 | 1020.7 |
| 20260503183049 | 69 | 278 | 0.0 | 8.7 | 0.00 | 0.00 | 0.00 | 43 | 1020.9 |
| 20260503181550 | 68 | 218 | 2.6 | 10.4 | 0.00 | 0.00 | 0.00 | 43 | 1021.0 |
| 20260503180046 | 68 | 248 | 0.9 | 5.2 | 0.00 | 0.00 | 0.00 | 42 | 1021.0 |
| 20260503174600 | 67 | 273 | 3.5 | 8.7 | 0.00 | 0.00 | 0.00 | 48 | 1021.4 |
| 20260503173043 | 67 | 219 | 0.0 | 7.8 | 0.00 | 0.00 | 0.00 | 44 | 1021.7 |
| 20260503171542 | 67 | 200 | 0.0 | 4.3 | 0.00 | 0.00 | 0.00 | 45 | 1022.0 |
| 20260503081538 | 40 | 302 | 0.0 | 0.0 | 0.00 | 0.00 | 0.00 | 94 | 1021.4 |
| 20260503071530 | 41 | 302 | 0.0 | 0.0 | 0.00 | 0.00 | 0.00 | 93 | 1021.2 |
| 20260503054519 | 43 | 302 | 0.0 | 0.0 | 0.00 | 0.00 | 0.00 | 90 | 1021.3 |
| 20260503053006 | 44 | 302 | 0.0 | 0.0 | 0.00 | 0.00 | 0.00 | 89 | 1021.4 |
| 20260503051503 | 44 | 302 | 0.0 | 0.0 | 0.00 | 0.00 | 0.00 | 88 | 1021.1 |
| 20260503050003 | 45 | 302 | 0.0 | 0.0 | 0.00 | 0.00 | 0.00 | 87 | 1021.0 |
| 20260503044605 | 46 | 302 | 0.0 | 0.0 | 0.00 | 0.00 | 0.00 | 87 | 1021.1 |
| 20260503043100 | 46 | 302 | 0.0 | 0.0 | 0.00 | 0.00 | 0.00 | 86 | 1021.0 |
| 20260503041557 | 47 | 302 | 0.0 | 0.0 | 0.00 | 0.00 | 0.00 | 83 | 1020.8 |
| 20260503040056 | 48 | 302 | 0.0 | 0.0 | 0.00 | 0.00 | 0.00 | 82 | 1020.6 |
| 20260503034557 | 49 | 302 | 0.0 | 0.0 | 0.00 | 0.00 | 0.00 | 80 | 1020.7 |
| 20260503033059 | 50 | 302 | 0.0 | 0.0 | 0.00 | 0.00 | 0.00 | 79 | 1020.7 |
| 20260503031554 | 51 | 302 | 0.0 | 0.0 | 0.00 | 0.00 | 0.00 | 76 | 1020.7 |
| 20260503030053 | 51 | 302 | 0.0 | 0.0 | 0.00 | 0.00 | 0.00 | 75 | 1020.6 |
| 20260503024553 | 52 | 302 | 0.0 | 0.9 | 0.00 | 0.00 | 0.00 | 73 | 1020.6 |
| 20260503023051 | 54 | 302 | 0.0 | 0.9 | 0.00 | 0.00 | 0.00 | 70 | 1020.5 |
| 20260503021552 | 55 | 302 | 0.0 | 1.7 | 0.00 | 0.00 | 0.00 | 68 | 1020.1 |
| 20260503020048 | 55 | 269 | 0.0 | 1.7 | 0.00 | 0.00 | 0.00 | 67 | 1019.9 |
| 20260503014601 | 56 | 302 | 0.0 | 1.7 | 0.00 | 0.00 | 0.00 | 67 | 1019.7 |
| 20260503013046 | 57 | 296 | 0.0 | 1.7 | 0.00 | 0.00 | 0.00 | 65 | 1019.3 |
| 20260503011552 | 58 | 71 | 0.9 | 2.6 | 0.00 | 0.00 | 0.00 | 62 | 1019.1 |
| 20260503010042 | 59 | 334 | 0.0 | 2.6 | 0.00 | 0.00 | 0.00 | 61 | 1018.9 |
| 20260503004541 | 60 | 168 | 1.7 | 5.2 | 0.00 | 0.00 | 0.00 | 59 | 1018.6 |
| 20260503003042 | 61 | 315 | 1.7 | 6.1 | 0.00 | 0.00 | 0.00 | 55 | 1018.4 |
| 20260503001540 | 62 | 214 | 0.0 | 5.2 | 0.00 | 0.00 | 0.00 | 47 | 1018.0 |
| 20260503000040 | 62 | 276 | 0.9 | 2.6 | 0.00 | 0.00 | 0.00 | 48 | 1017.8 |
| 20260502234556 | 63 | 90 | 0.9 | 7.8 | 0.00 | 0.00 | 0.00 | 45 | 1017.5 |
| 20260502233038 | 64 | 24 | 2.6 | 6.1 | 0.00 | 0.00 | 0.00 | 44 | 1017.3 |
| 20260502231537 | 65 | 50 | 0.9 | 5.2 | 0.00 | 0.00 | 0.00 | 44 | 1017.2 |
| 20260502230037 | 66 | 122 | 0.0 | 6.1 | 0.00 | 0.00 | 0.00 | 42 | 1017.3 |
| 20260502224535 | 67 | 331 | 1.7 | 5.2 | 0.00 | 0.00 | 0.00 | 40 | 1017.3 |
| 20260502223034 | 67 | 316 | 0.9 | 7.0 | 0.00 | 0.00 | 0.00 | 42 | 1017.2 |
| 20260502221531 | 68 | 281 | 0.9 | 7.8 | 0.00 | 0.00 | 0.00 | 42 | 1017.1 |
| 20260502220032 | 69 | 323 | 2.6 | 7.0 | 0.00 | 0.00 | 0.00 | 43 | 1017.1 |
| 20260502214530 | 67 | 286 | 2.6 | 12.2 | 0.00 | 0.00 | 0.00 | 42 | 1016.8 |
| 20260502213037 | 69 | 257 | 2.6 | 8.7 | 0.00 | 0.00 | 0.00 | 40 | 1016.6 |
| 20260502211528 | 68 | 253 | 2.6 | 9.6 | 0.00 | 0.00 | 0.00 | 43 | 1016.8 |
| 20260502210025 | 69 | 207 | 1.7 | 7.0 | 0.00 | 0.00 | 0.00 | 41 | 1016.8 |
| 20260502204524 | 68 | 248 | 2.6 | 12.2 | 0.00 | 0.00 | 0.00 | 43 | 1016.7 |
| 20260502203021 | 68 | 260 | 2.6 | 8.7 | 0.00 | 0.00 | 0.00 | 41 | 1016.9 |
| 20260502201532 | 66 | 259 | 0.0 | 6.1 | 0.00 | 0.00 | 0.00 | 48 | 1017.0 |